Location: Lake Sonoma
(38.7200°N, 123.0564°W)
Time: 10:29:43
(UTC-08:00)

ISS - Visible Passes

Search period start: 30 January 2015 00:00
Search period end: 09 February 2015 00:00
Orbit: 400 x 408 km, 51.6° (Epoch: 30 January)

Date Brightness Start Highest point End Pass type
(mag) Time Alt. Az. Time Alt. Az. Time Alt. Az.
02 Feb -0.9 18:45:17 10° SSE 18:45:51 11° SE 18:45:51 11° SE visible
03 Feb -1.9 19:26:55 10° SW 19:28:53 33° SSW 19:28:53 33° SSW visible
04 Feb -2.2 18:34:57 10° SSW 18:37:48 28° SE 18:39:07 21° E visible
04 Feb 0.0 20:11:19 10° W 20:11:48 13° W 20:11:48 13° W visible
05 Feb -2.8 19:18:30 10° WSW 19:21:42 52° NW 19:21:54 51° NNW visible
06 Feb -3.4 18:25:58 10° SW 18:29:12 77° SE 18:31:53 14° NE visible
06 Feb -0.2 20:03:44 10° WNW 20:04:33 14° NW 20:04:33 14° NW visible
07 Feb -1.5 19:10:30 10° W 19:13:18 25° NNW 19:14:25 21° N visible
08 Feb -2.3 18:17:30 10° WSW 18:20:38 42° NNW 18:23:46 10° NE visible
08 Feb -0.2 19:56:28 10° NW 19:56:50 11° NNW 19:56:50 11° NNW visible
